Tracking 29594 objects as of 20-Sep-2024
HD Live streaming from Space Station
objects crossing your sky now

YAOGAN-43 02D

Track YAOGAN-43 02D now!
10-day predictions
YAOGAN-43 02D is classified as:


NORAD ID: 60948
Int'l Code: 2024-156D
Perigee: 495.4 km
Apogee: 505.1 km
Inclination: 35.0 °
Period: 94.5 minutes
Semi major axis: 6871 km
RCS: Unknown
Launch date: September 3, 2024
Source: People's Republic of China (PRC)
Launch site: Xichang Space Center, China (XSC)
Your satellite tracking list
Your tracking list is empty




NASA's NSSDC Master Catalog

Two Line Element Set (TLE):
1 60948U 24156D   24264.33319069  .00003465  00000-0  13998-3 0  9998
2 60948  34.9933 231.0078 0007070  50.0917 310.0419 15.24234764  2599
Source of the keplerian elements: AFSPC